This is the latest recevied weather packets stored in our database for station/object KF8LO-1. If no packets are shown the sender has not sent any weather packets the latest 1 day(s).
| Time | Temp. | Humidity | Pressure | Rain* | Wind** | Luminosity | Snow |
|---|---|---|---|---|---|---|---|
| 1778029323 | 17.78° C | 42% | 0 hPa | 0 mm | 4.02 m/s, 291° | - | - |
| 1778029023 | 17.78° C | 42% | 0 hPa | 0 mm | 1.34 m/s, 309° | - | - |
| 1778028723 | 17.78° C | 42% | 0 hPa | 0 mm | 2.24 m/s, 291° | - | - |
| 1778028423 | 17.78° C | 42% | 0 hPa | 0 mm | 1.34 m/s, 271° | - | - |
| 1778028123 | 17.78° C | 42% | 0 hPa | 0 mm | 1.79 m/s, 291° | - | - |
| 1778027823 | 18.33° C | 42% | 0 hPa | 0 mm | 0.89 m/s, 279° | - | - |
| 1778027523 | 18.33° C | 41% | 0 hPa | 0 mm | 2.68 m/s, 299° | - | - |
| 1778027223 | 18.33° C | 41% | 0 hPa | 0 mm | 2.68 m/s, 278° | - | - |
| 1778026923 | 18.33° C | 41% | 0 hPa | 0 mm | 1.79 m/s, 289° | - | - |
| 1778026623 | 18.33° C | 41% | 0 hPa | 0 mm | 0.89 m/s, 292° | - | - |
| 1778026323 | 18.33° C | 41% | 0 hPa | 0 mm | 0.89 m/s, 286° | - | - |
| 1778026023 | 18.33° C | 40% | 0 hPa | 0 mm | 0.89 m/s, 324° | - | - |
| 1778025723 | 18.33° C | 40% | 0 hPa | 0 mm | 1.79 m/s, 295° | - | - |
| 1778025423 | 18.33° C | 40% | 0 hPa | 0 mm | 2.68 m/s, 293° | - | - |
| 1778025123 | 18.89° C | 39% | 0 hPa | 0 mm | 2.68 m/s, 309° | - | - |
| 1778024823 | 18.89° C | 39% | 0 hPa | 0 mm | 2.24 m/s, 309° | - | - |
| 1778024523 | 18.89° C | 38% | 0 hPa | 0 mm | 1.79 m/s, 270° | - | - |
| 1778024223 | 18.89° C | 38% | 0 hPa | 0 mm | 1.79 m/s, 289° | - | - |
| 1778023923 | 19.44° C | 37% | 0 hPa | 0 mm | 2.68 m/s, 300° | - | - |
| 1778023623 | 19.44° C | 36% | 0 hPa | 0 mm | 2.68 m/s, 285° | - | - |
| 1778023323 | 19.44° C | 36% | 0 hPa | 0 mm | 3.13 m/s, 322° | - | - |
| 1778023023 | 20° C | 35% | 0 hPa | 0 mm | 2.68 m/s, 298° | - | - |
| 1778022723 | 20° C | 34% | 0 hPa | 0 mm | 2.24 m/s, 306° | - | - |
| 1778022423 | 20.56° C | 34% | 0 hPa | 0 mm | 3.13 m/s, 310° | - | - |
| 1778022123 | 20.56° C | 34% | 0 hPa | 0 mm | 1.79 m/s, 302° | - | - |
* Rain latest hour (hover to see other rain measurements)
** Current wind speed in m/s (hover to see current wind gust speed)